Home   Weather   Cornwall   Past weeks

Flag for Canada Past Weather in Cornwall, Ontario, Canada — Yesterday and Last 2 Weeks

Now
58 °F

Cool.


Feels Like: 57 °F
Forecast: 57 / 72 °F
Wind: 9 mph from East

Location: St Anicet

Current Time: Jul 25, 2017 at 10:54:12 am

Latest Report: Jul 25, 2017 at 10:00 am


Visibility: N/A

Pressure: 30.14 "Hg

Humidity: 92%

Dew Point: 56 °F

Location of CornwallLocation

Past Weather in Cornwall — Graph

°F

Cornwall Temperature Yesterday

Maximum temperature yesterday: 64 °F (at 12:00 am)
Minimum temperature yesterday: 56 °F (at 8:00 pm)
Average temperature yesterday: 60 °F

High & Low Weather Summary for the Past Weeks

 TemperatureHumidityPressure
High83 °F (Jul 18, 7:00 pm)100% (Jul 12, 4:00 am)30.12 "Hg (Jul 12, 4:00 am)
Low54 °F (Jul 13, 8:00 am)46% (Jul 23, 12:00 pm)29.78 "Hg (Jul 21, 7:00 pm)
Average67 °F83%29.93 "Hg
* Reported Jul 10 9:00 am — Jul 25 9:00 am, Cornwall. Weather by CustomWeather, © 2017

Note: Actual official high and low records may vary slightly from our data, if they occured in-between our weather recording intervals... More about our weather records

Advertising

Cornwall Weather History for the Previous 24 Hours

Scroll right to see more
 ConditionsComfort  
Time TempWeatherWind HumidityBarometerVisibility
9:00 am
Tue, Jul 25
58 °FCool.8 mph95%30.12 "HgN/A
8:00 am57 °FCool.9 mph96%30.10 "HgN/A
7:00 am56 °FCool.10 mph97%30.08 "HgN/A
6:00 am56 °FCool.10 mph97%30.06 "HgN/A
5:00 am56 °FCool.10 mph99%30.03 "HgN/A
4:00 am54 °FCool.9 mph100%30.00 "HgN/A
3:00 am56 °FCool.8 mph98%29.99 "HgN/A
2:00 am57 °FCool.10 mph97%29.98 "HgN/A
1:00 am57 °FCool.10 mph98%29.97 "HgN/A
12:00 am57 °FCool.10 mph98%29.95 "HgN/A
11:00 pm
Mon, Jul 24
57 °FCool.10 mph98%29.95 "HgN/A
10:00 pm57 °FCool.12 mph97%29.95 "HgN/A
9:00 pm58 °FCool.12 mph97%29.93 "HgN/A
8:00 pm56 °FCool.8 mph100%29.92 "HgN/A
7:00 pm58 °FCool.12 mph96%29.90 "HgN/A
6:00 pm59 °FCool.12 mph94%29.89 "HgN/A
5:00 pm60 °FCool.13 mph96%29.89 "HgN/A
4:00 pm60 °FCool.10 mph96%29.88 "HgN/A
3:00 pm60 °FCool.8 mph95%29.88 "HgN/A
2:00 pm60 °FCool.9 mph96%29.86 "HgN/A
1:00 pm60 °FCool.9 mph96%29.88 "HgN/A
12:00 pm60 °FCool.7 mph97%29.88 "HgN/A
11:00 am62 °FCool.8 mph93%29.87 "HgN/A
10:00 am61 °FCool.8 mph93%29.85 "HgN/A
Weather by CustomWeather, © 2017

See weather overviewHow to use our weather pages